This demonstration page uses our WeatherBlox Daily Observations layout. Learn more.

Left ArrowRight Arrow

44.8408, -93.29828

Hourly Observations for March 10, 2017

Temp ( °F °C ) Dew Point ( °F °C ) Humidity (%) Winds ( mph kmh ) Pressure ( in mb ) Visibility ( mi km ) Precip ( " mm )
12:53 am 00:53 Clear 15 -9.4 -1 -18.3 49 49 NNW 20 31 30.55 1034 10 16 0.00 0.00
1:53 am 01:53 Clear 13 -10.6 -2 -18.9 51 51 NNW 17 28 30.57 1035 10 16 0.00 0.00
2:53 am 02:53 Clear 10 -12.2 -3 -19.4 55 55 NNW 15 24 30.59 1036 10 16 0.00 0.00
3:53 am 03:53 Clear 8 -13.3 -5 -20.6 55 55 NW 15 24 30.62 1037 10 16 0.00 0.00
4:53 am 04:53 Clear 7 -13.9 -9 -22.8 47 47 N 17 28 30.64 1038 10 16 0.00 0.00
5:53 am 05:53 Clear 5 -15 -8 -22.2 54 54 NNW 12 19 30.66 1038 10 16 0.00 0.00
6:53 am 06:53 Mostly Sunny 5 -15 -9 -22.8 52 52 NNW 9 15 30.69 1039 10 16 0.00 0.00
7:53 am 07:53 Mostly Sunny 6 -14.4 -11 -23.9 45 45 N 13 20 30.71 1040 10 16 0.00 0.00
8:53 am 08:53 Mostly Sunny 8 -13.3 -11 -23.9 41 41 N 12 19 30.72 1040 10 16 0.00 0.00
9:53 am 09:53 Mostly Sunny 10 -12.2 -13 -25 34 34 N 14 22 30.71 1040 10 16 0.00 0.00
10:53 am 10:53 Mostly Sunny 12 -11.1 -15 -26.1 28 28 NE 13 20 30.71 1040 10 16 0.00 0.00
11:53 am 11:53 Partly Cloudy 14 -10 -14 -25.6 27 27 N 6 9 30.70 1040 10 16 0.00 0.00
12:53 pm 12:53 Mostly Cloudy 15 -9.4 -15 -26.1 24 24 N 10 17 30.68 1039 10 16 0.00 0.00
1:53 pm 13:53 Mostly Cloudy 18 -7.8 -15 -26.1 22 22 N 10 17 30.64 1038 10 16 0.00 0.00
2:53 pm 14:53 Mostly Cloudy 18 -7.8 -15 -26.1 22 22 N 9 15 30.62 1037 10 16 0.00 0.00
3:53 pm 15:53 Mostly Cloudy 18 -7.8 -16 -26.7 20 20 WNW 7 11 30.61 1037 10 16 0.00 0.00
4:53 pm 16:53 Cloudy 17 -8.3 -13 -25 25 25 NNW 7 11 30.60 1036 10 16 0.00 0.00
5:53 pm 17:53 Cloudy 16 -8.9 -15 -26.1 24 24 NW 9 15 30.59 1036 10 16 0.00 0.00
6:53 pm 18:53 Cloudy 16 -8.9 -12 -24.4 27 27 NW 9 15 30.59 1036 10 16 0.00 0.00
7:53 pm 19:53 Cloudy 15 -9.4 -11 -23.9 30 30 N 9 15 30.59 1036 10 16 0.00 0.00
8:53 pm 20:53 Mostly Cloudy 14 -10 -10 -23.3 33 33 NNW 10 17 30.59 1036 10 16 0.00 0.00
9:53 pm 21:53 Mostly Cloudy 14 -10 -12 -24.4 30 30 N 9 15 30.61 1037 10 16 0.00 0.00
10:53 pm 22:53 Cloudy 13 -10.6 -14 -25.6 28 28 NNE 8 13 30.62 1037 10 16 0.00 0.00
11:53 pm 23:53 Partly Cloudy 11 -11.7 -14 -25.6 31 31 N 12 19 30.62 1037 10 16 0.00 0.00

Powered by AerisWeather